Barter Island LRRS Airport


Codes: PABA/BTI
Name: Barter Island LRRS Airport
City: Barter Island Lrrs
Country: United States
Elevation: 2 ft.
Wikipedia:

Photos at Barter Island LRRS Airport


   Photos courtesy of SpottingLog. You can add your own sightings and photos by signing up for a free trial today.



No photos found.

Weather at Barter Island LRRS Airport


Time (UTC)DescriptionTempratureWindCloud coverageVisibilityPressureHumidity
15-Apr-2024 18:00Scattered Clouds-14°C9 mph, SE45%10000m1021hPa68%
15-Apr-2024 21:00Broken Clouds-9°C9 mph, SE61%10000m1020hPa70%
16-Apr-2024 00:00Broken Clouds-4°C9 mph, SE72%10000m1019hPa74%
16-Apr-2024 03:00Broken Clouds-6°C7 mph, SE77%10000m1018hPa81%
16-Apr-2024 06:00Broken Clouds-10°C7 mph, S58%10000m1018hPa83%
16-Apr-2024 09:00Overcast Clouds-9°C7 mph, SE100%10000m1016hPa80%
16-Apr-2024 12:00Overcast Clouds-13°C4 mph, SE100%10000m1015hPa84%
16-Apr-2024 15:00Scattered Clouds-13°C4 mph, S41%10000m1014hPa82%
16-Apr-2024 18:00Scattered Clouds-5°C7 mph, S44%10000m1013hPa77%
16-Apr-2024 21:00Overcast Clouds1°C2 mph, N100%10000m1014hPa80%
17-Apr-2024 00:00Overcast Clouds1°C2 mph, W98%10000m1016hPa81%
17-Apr-2024 03:00Scattered Clouds-1°C7 mph, SW27%10000m1019hPa84%
17-Apr-2024 06:00Few Clouds-5°C9 mph, S22%10000m1022hPa83%
17-Apr-2024 09:00Few Clouds-6°C9 mph, SW19%10000m1024hPa78%
17-Apr-2024 12:00Few Clouds-9°C7 mph, SW23%10000m1026hPa80%
17-Apr-2024 15:00Broken Clouds-8°C7 mph, SW68%10000m1028hPa83%
17-Apr-2024 18:00Broken Clouds-5°C2 mph, W84%10000m1029hPa86%
17-Apr-2024 21:00Broken Clouds-3°C4 mph, NE51%10000m1029hPa85%
18-Apr-2024 00:00Broken Clouds-1°C9 mph, NE56%10000m1029hPa87%
18-Apr-2024 03:00Overcast Clouds-2°C11 mph, NE100%10000m1028hPa92%
18-Apr-2024 06:00Overcast Clouds-3°C11 mph, NE100%10000m1028hPa94%
18-Apr-2024 09:00Overcast Clouds-5°C13 mph, NE100%10000m1027hPa96%
18-Apr-2024 12:00Overcast Clouds-7°C13 mph, NE100%8670m1028hPa96%
18-Apr-2024 15:00Overcast Clouds-7°C11 mph, NE100%2939m1029hPa95%
18-Apr-2024 18:00Overcast Clouds-6°C13 mph, NE100%1860m1030hPa93%
18-Apr-2024 21:00Overcast Clouds-5°C13 mph, E100%4667m1032hPa92%
19-Apr-2024 00:00Overcast Clouds-4°C16 mph, E100%8215m1032hPa91%
19-Apr-2024 03:00Overcast Clouds-4°C16 mph, E100%5537m1032hPa92%
19-Apr-2024 06:00Overcast Clouds-6°C18 mph, E100%4187m1031hPa94%
19-Apr-2024 09:00Overcast Clouds-7°C18 mph, E100%6264m1030hPa94%
19-Apr-2024 12:00Overcast Clouds-10°C16 mph, E98%5998m1029hPa93%
19-Apr-2024 15:00Overcast Clouds-11°C16 mph, E95%2950m1028hPa94%
19-Apr-2024 18:00Overcast Clouds-10°C18 mph, E97%1498m1028hPa94%
19-Apr-2024 21:00Overcast Clouds-7°C18 mph, E100%2173m1027hPa92%
20-Apr-2024 00:00Overcast Clouds-5°C18 mph, E100%3064m1026hPa90%
20-Apr-2024 03:00Overcast Clouds-5°C18 mph, E100%2281m1025hPa93%
20-Apr-2024 06:00Overcast Clouds-7°C16 mph, E100%2071m1024hPa94%
20-Apr-2024 09:00Overcast Clouds-7°C13 mph, E100%1949m1023hPa94%
20-Apr-2024 12:00Overcast Clouds-8°C11 mph, E100%1614m1022hPa95%
20-Apr-2024 15:00Overcast Clouds-8°C11 mph, E100%1430m1021hPa95%